TRANSIT 11 DEB, 11991

Orbit data source: Space-Track

TRANSIT 11 DEB, 11991 is space debris in LEO originally from a launch on Fri, 28 Jan 1966 UTC launched from the Air Force Western Test Range (AFWTR). Debris objects in space refer to the collection of defunct objects orbiting the Earth. Examples of debris include non-operational satellites, rocket bodies, and fragments generated from explosions, collisions, or faulty payload assembly.

Loading next visibility...
Identifier
11991, 1966-005H
Orbit
LEO
Country
Flag of USUS
Related business
Manufacturer
Unknown
Mission
Spacecraft
Bus & Motor
Unknown
Mass
Unknown
Launch date (UTC)
1966-01-28 (60 years ago)
Launch vehicle
Unknown
Launch site
Air Force Western Test Range (AFWTR)
Object type
Payload
Rocket body
Debris
Shape & HBR
Unknown shape, 0.2 m
Radar Cross Section
Medium (>0.1 m² and <1 m²)

Expand to show TLE details & history
Last TLE update: 23 hours ago

TLE from 23 hours ago
0 TRANSIT 11 DEB
1 11991U 66005H   25312.51791470  .00001174  00000-0  92696-3 0  9993
2 11991  90.1644 338.6503 0173168 298.4515 218.1927 13.84478534990853
Epoch: 2025-11-08T12:25Z
TLE epoch observation values (Epoch: 2025-11-08T12:25:47.830Z)
Latitude
24.58536°
Longitude
-75.67054°
Altitude
1,051.667 km
Speed
7.278 km/s
True Right ascension
10h 34m 54s
True Declination
24° 27' 38"
Sunlit
Object was in daylight at epoch
Visualization orbit readout
Latitude
Unknown
Longitude
Unknown
Altitude
Unknown
Speed
Unknown
Apparent Right ascension
Unknown
Apparent Declination
Unknown
Sunlit
N/A
Visualization observer readout
Local Sidereal Time
07:25:51
Azimuth
Unknown
Elevation
Unknown
Doppler factor
Unknown
Orbital elements
Apogee altitude
1,071.857 km
Perigee altitude
818.229 km
Semi-major axis
7,323.18 km
Eccentricity
0.01732
Inclination
90.1644°
RAAN
338.6503°
Arg. of periapsis
298.4515°
True anomaly
216.98638°
Mean anomaly
218.1927°
Eccentric anomaly
217.5875°
Mean motion
3.46333 °/min
Orbital period
103.95 mins
BSTAR
0.00092696
Loading maneuver chart data...
Computing Atmospheric mass density...
Loading historical data...
Loading historical data...
Loading historical data...
Loading historical data...
Loading historical data...
Loading historical data...
Loading historical data...

Documentation

Showing up to 5 results
|